TimeEST,TemperatureF,Dew PointF,Humidity,Sea Level PressureIn,VisibilityMPH,Wind Direction,Wind SpeedMPH,Gust SpeedMPH,PrecipitationIn,Events,Conditions,WindDirDegrees,DateUTC
12:53 AM,25.0,19.9,81,30.28,9.0,SSW,8.1,-,N/A,,Clear,210,2012-11-28 05:53:00
1:53 AM,26.1,21.0,81,30.28,8.0,SW,5.8,-,N/A,,Partly Cloudy,220,2012-11-28 06:53:00
2:53 AM,27.0,21.9,81,30.28,9.0,WSW,4.6,-,N/A,,Scattered Clouds,240,2012-11-28 07:53:00
3:53 AM,27.0,21.9,81,30.27,8.0,SW,6.9,-,N/A,,Overcast,230,2012-11-28 08:53:00
4:53 AM,26.1,21.9,84,30.27,8.0,WSW,5.8,-,N/A,,Clear,240,2012-11-28 09:53:00
5:53 AM,28.9,21.9,75,30.28,9.0,WSW,9.2,-,N/A,,Overcast,240,2012-11-28 10:53:00
6:53 AM,28.9,21.0,72,30.29,10.0,WSW,11.5,-,N/A,,Overcast,240,2012-11-28 11:53:00
7:53 AM,28.0,19.9,72,30.31,10.0,WSW,12.7,-,N/A,,Partly Cloudy,250,2012-11-28 12:53:00
8:53 AM,30.0,21.9,72,30.33,10.0,WSW,13.8,-,N/A,,Partly Cloudy,250,2012-11-28 13:53:00
9:53 AM,32.0,21.9,66,30.35,10.0,West,15.0,-,N/A,,Clear,260,2012-11-28 14:53:00
10:53 AM,35.1,23.0,61,30.36,10.0,West,12.7,-,N/A,,Clear,260,2012-11-28 15:53:00
11:34 AM,35.6,24.8,65,30.34,10.0,WSW,10.4,-,N/A,,Mostly Cloudy,250,2012-11-28 16:34:00
11:53 AM,36.0,24.1,62,30.36,10.0,West,9.2,-,N/A,,Scattered Clouds,280,2012-11-28 16:53:00
12:19 PM,37.4,24.8,60,30.33,10.0,WSW,11.5,-,N/A,,Mostly Cloudy,250,2012-11-28 17:19:00
12:50 PM,39.2,26.6,61,30.34,10.0,West,11.5,-,N/A,,Scattered Clouds,260,2012-11-28 17:50:00
12:53 PM,39.0,26.1,60,30.36,10.0,West,15.0,-,N/A,,Partly Cloudy,280,2012-11-28 17:53:00
1:53 PM,39.0,25.0,57,30.33,10.0,West,10.4,-,N/A,,Scattered Clouds,280,2012-11-28 18:53:00
2:53 PM,39.9,26.1,58,30.31,10.0,West,12.7,-,N/A,,Partly Cloudy,280,2012-11-28 19:53:00
3:53 PM,39.9,25.0,55,30.32,10.0,West,12.7,-,N/A,,Partly Cloudy,260,2012-11-28 20:53:00
4:53 PM,37.0,25.0,62,30.34,10.0,West,8.1,-,N/A,,Partly Cloudy,270,2012-11-28 21:53:00
5:53 PM,33.1,24.1,70,30.34,10.0,WSW,4.6,-,N/A,,Clear,240,2012-11-28 22:53:00
6:53 PM,28.9,24.1,82,30.35,10.0,SW,4.6,-,N/A,,Clear,230,2012-11-28 23:53:00
7:53 PM,28.0,23.0,81,30.37,10.0,SW,5.8,-,N/A,,Clear,220,2012-11-29 00:53:00
8:53 PM,27.0,21.9,81,30.36,10.0,SSW,6.9,-,N/A,,Clear,210,2012-11-29 01:53:00
9:53 PM,28.0,21.9,78,30.36,10.0,WSW,3.5,-,N/A,,Clear,240,2012-11-29 02:53:00
10:53 PM,28.0,23.0,81,30.35,10.0,SW,4.6,-,N/A,,Clear,220,2012-11-29 03:53:00
11:53 PM,28.9,23.0,78,30.35,10.0,SW,4.6,-,N/A,,Clear,230,2012-11-29 04:53:00